Location: Chippewa Lake
(41.0698°N, 81.9010°W)
Time: 18:13:55
(UTC+00:00)

Spot 2 Rocket - Pass Details

Date: 28 September 2021
Orbit: 757 x 771 km, 98.5° (Epoch: 17 October)

Event Time Altitude Azimuth Distance (km) Brightness Sun altitude
Exits shadow 03:23:22 12° 337° (NNW) 2,182 6.4 -43.2°
Drops below altitude 10° 03:23:40 10° 337° (NNW) 2,296 6.5 -43.2°
Sets 03:26:02 0° 342° (NNW) 3,226 7.4 -43.5°
